Location: Tuebingen alte Sternwarte
(48.5376°N, 9.0555°E)
Time: 22:41:40
(UTC+02:00)

OTV 5 (USA 277) - Pass Details

Date: 22 June 2018
Orbit: 312 x 321 km, 54.5° (Epoch: 05 July)

Event Time Altitude Azimuth Distance (km) Brightness Sun altitude
Rises 23:51:56 0° 295° (WNW) 2,048 ? -15.0°
Reaches altitude 10° 23:54:08 10° 311° (NW) 1,219 ? -15.2°
Maximum altitude 23:56:23 23° 7° (N) 734 ? -15.3°
Drops below altitude 10° 23:58:38 10° 64° (ENE) 1,221 ? -15.4°
Enters shadow 00:00:31 - 78° (ENE) 1,928 ? -15.5°
